Location: Newark
(43.4306°N, 0.3089°E)
Time: 01:07:02
(UTC+00:00)

A-11 Canister half - Pass Details

Date: 27 August 2019
Orbit: 1513 x 1686 km, 47.2° (Epoch: 18 September)

Event Time Altitude Azimuth Distance (km) Brightness Sun altitude
Rises 00:48:10 0° 291° (WNW) 4,831 11.7 -35.3°
Reaches altitude 10° 00:52:14 10° 277° (W) 3,870 11.0 -35.1°
Enters shadow 00:53:17 13° 272° (W) 3,665 10.8 -35.0°
